Change the Weather History Date:

Saturday, January 12, 2013

  Actual Average (KDFW) Record (KDFW)
Temperature  
Mean Temperature 50 °F 46 °F  
Max Temperature 64 °F 56 °F 82 °F (2000)
Min Temperature 35 °F 35 °F 1 °F (1912)
Degree Days  
Heating Degree Days 16 19  
Month to date heating degree days 239  
Since 1 July heating degree days 1151  
Cooling Degree Days 0 0  
Month to date cooling degree days 0  
Year to date cooling degree days 0  
Moisture  
Dew Point 49 °F    
Average Humidity 87    
Maximum Humidity 100    
Minimum Humidity 62    
Precipitation  
Precipitation 0.00 in 0.06 in 2.42 in (1950)
Month to date precipitation 0.75  
Year to date precipitation 0.75  
Snow  
Snow 0.00 in 0.00 in 1.20 in (2003)
Month to date snowfall 0.1  
Since 1 July snowfall 0.4  
Snow Depth -    
Sea Level Pressure  
Sea Level Pressure 29.86 in    
Wind  
Wind Speed 10 mph (WNW)    
Max Wind Speed 17 mph    
Max Gust Speed 26 mph    
Visibility 7 miles    
Events Fog    
T = Trace of Precipitation, MM = Missing Value Source: NWS Daily Summary

Daily Weather History Graph

Daily Weather History Graph

Search for Another Location

Airport or City:

Trip Planner

Search our weather history database for the weather conditions in past years. The results will help you decide how hot, cold, wet, or windy it might be!

Date:

Astronomy

Jan. 12, 2013 Rise Set
Actual Time 7:30 AM CST 5:42 PM CST
Civil Twilight 7:04 AM CST 6:09 PM CST
Nautical Twilight 6:33 AM CST 6:39 PM CST
Astronomical Twilight 6:04 AM CST 7:09 PM CST
Moon 7:56 AM CST (1/12) 7:06 PM CST (1/12)
Length of Visible Light 11h 05m
Length of Day
10h 11m
New Moon, 1% of the Moon is Illuminated
Jan 12
New Moon
Jan 18
First Quarter
Jan 26
Full
Feb 3
Last Quarter
Feb 10
New

Hourly Weather History & Observations

Time (CST) Temp. Windchill Dew Point Humidity Pressure Visibility Wind Dir Wind Speed Gust Speed Precip Events Conditions
12:15 AM 64.4 °F - 60.8 °F 88% 29.86 in 7.0 mi South 12.7 mph 19.6 mph N/A   Overcast
12:55 AM 64.4 °F - 60.8 °F 88% 29.86 in 7.0 mi SSW 10.4 mph - N/A   Overcast
1:15 AM 64.4 °F - 60.8 °F 88% 29.86 in 7.0 mi SSW 6.9 mph - N/A   Overcast
1:35 AM 64.4 °F - 60.8 °F 88% 29.85 in 7.0 mi South 9.2 mph 16.1 mph N/A   Overcast
1:55 AM 64.4 °F - 60.8 °F 88% 29.84 in 7.0 mi South 9.2 mph - N/A   Overcast
2:15 AM 64.4 °F - 60.8 °F 88% 29.84 in 7.0 mi South 9.2 mph - N/A   Overcast
2:35 AM 64.4 °F - 60.8 °F 88% 29.83 in 7.0 mi SSE 10.4 mph - N/A   Overcast
2:55 AM 64.4 °F - 60.8 °F 88% 29.82 in 7.0 mi SSE 12.7 mph 17.3 mph N/A   Overcast
3:15 AM 64.4 °F - 60.8 °F 88% 29.82 in 7.0 mi South 10.4 mph 16.1 mph N/A   Mostly Cloudy
3:35 AM 62.6 °F - 60.8 °F 94% 29.84 in 7.0 mi SSW 6.9 mph - N/A   Mostly Cloudy
3:55 AM 64.4 °F - 60.8 °F 88% 29.82 in 7.0 mi South 8.1 mph - N/A   Overcast
4:15 AM 64.4 °F - 60.8 °F 88% 29.81 in 7.0 mi South 8.1 mph - N/A   Overcast
4:35 AM 64.4 °F - 60.8 °F 88% 29.80 in 5.0 mi South 4.6 mph - N/A   Overcast
4:55 AM 64.4 °F - 60.8 °F 88% 29.80 in 5.0 mi Calm Calm - N/A   Overcast
5:15 AM 64.4 °F - 60.8 °F 88% 29.81 in 5.0 mi West 3.5 mph - N/A   Overcast
5:55 AM 62.6 °F - 60.8 °F 94% 29.81 in 1.8 mi Calm Calm - N/A   Overcast
7:55 AM 62.6 °F - 62.6 °F 100% 29.82 in 0.1 mi Calm Calm - N/A Fog Fog
8:55 AM 62.6 °F - 62.6 °F 100% 29.81 in 0.5 mi Calm Calm - N/A Fog Fog
11:55 AM 64.4 °F - 62.6 °F 94% 29.76 in 0.5 mi NW 6.9 mph - N/A Fog Fog
1:50 PM 53.6 °F - 50.0 °F 88% 29.72 in 7.0 mi North 11.5 mph 16.1 mph N/A   Overcast
3:50 PM 53.6 °F - 41.0 °F 62% 29.79 in 10.0 mi NW 12.7 mph 21.9 mph N/A   Overcast
4:50 PM 48.2 °F - 41.0 °F 76% 29.81 in 10.0 mi NNW 13.8 mph 23.0 mph N/A   Overcast
5:50 PM 42.8 °F 35.4 °F 35.6 °F 76% 29.86 in 10.0 mi NNW 15.0 mph 25.3 mph N/A   Overcast
8:15 PM 37.4 °F 29.3 °F 32.0 °F 81% 29.91 in 10.0 mi NNW 12.7 mph 21.9 mph N/A   Overcast
8:35 PM 37.4 °F 27.8 °F 32.0 °F 81% 29.93 in 10.0 mi North 17.3 mph 26.5 mph N/A   Overcast
8:55 PM 35.6 °F 27.1 °F 32.0 °F 87% 29.94 in 10.0 mi NNW 12.7 mph 18.4 mph N/A   Overcast
9:15 PM 35.6 °F 26.6 °F 32.0 °F 87% 29.94 in 10.0 mi North 13.8 mph 23.0 mph N/A   Overcast
9:35 PM 35.6 °F 27.1 °F 32.0 °F 87% 29.96 in 10.0 mi NNW 12.7 mph 18.4 mph N/A   Overcast
9:55 PM 35.6 °F 26.6 °F 32.0 °F 87% 29.96 in 10.0 mi North 13.8 mph 24.2 mph N/A   Overcast
10:15 PM 35.6 °F 26.6 °F 32.0 °F 87% 29.96 in 10.0 mi North 13.8 mph 19.6 mph N/A   Overcast
10:35 PM 35.6 °F 25.5 °F 32.0 °F 87% 29.96 in 10.0 mi North 17.3 mph 23.0 mph N/A   Overcast
10:55 PM 35.6 °F 28.6 °F 32.0 °F 87% 29.97 in 10.0 mi NNW 9.2 mph 17.3 mph N/A   Overcast
11:35 PM 35.6 °F 28.0 °F 30.2 °F 81% 29.98 in 10.0 mi North 10.4 mph 17.3 mph N/A   Overcast
11:55 PM 35.6 °F 27.1 °F 30.2 °F 81% 29.99 in 10.0 mi NNW 12.7 mph 19.6 mph N/A   Overcast